EUTELSAT 16A

Last updated on Nov. 18, 2019, 4:21 a.m. UTC

1 37836U 11057A   19321.14312821  .00000112  00000-0  00000+0 0  9992
2 37836   0.0691  15.2455 0004556 221.8227 246.3911  1.00273030 29688
UTC
Height (km)
Latitude
Longitude
Inclination
Orbital Period
UTC large
Height (km)
Speed (km/s)
/
Latitude / Longitude
Inclination (degrees)
Orbital Period (minutes)
Azimuth
Elevation
Range (km)
Doppler Factor
iOS Compass Heading
iOS Angle

Next 30 passes for location: Hong Kong

Rise time Rise Azimuth (degrees) Set time Set Azimuth (degrees) Duration Max altitude (degrees)

No matching passes for this satellites